Location: Powder Track
(41.8531°N, 72.3584°W)
Time: 00:06:43
(UTC+00:00)

Vanguard 1 - All Passes

Search period start: 29 July 2021 00:00
Search period end: 08 August 2021 00:00
Orbit: 651 x 3831 km, 34.2° (Epoch: 28 July)

Date Brightness Start Highest point End Pass type
(mag) Time Alt. Az. Time Alt. Az. Time Alt. Az.
29 Jul - 14:17:32 10° SSE 14:19:10 11° SE 14:20:58 10° ESE daylight
29 Jul - 16:32:48 10° SW 16:38:02 41° SSE 16:46:36 10° E daylight
29 Jul - 18:51:19 10° WSW 18:58:35 53° S 19:11:53 10° ESE daylight
29 Jul - 21:11:10 10° W 21:20:41 37° SSW 21:36:25 10° SE daylight
29 Jul - 23:35:21 10° WSW 23:43:50 17° SW 23:54:31 10° S daylight
30 Jul - 14:36:26 10° S 14:39:36 17° SSE 14:43:28 10° ESE daylight
30 Jul - 16:53:22 10° WSW 16:58:47 46° SSE 17:07:55 10° E daylight
30 Jul - 19:12:08 10° W 19:19:34 48° S 19:33:00 10° ESE daylight
30 Jul - 21:32:28 10° W 21:41:48 31° SSW 21:56:23 10° SSE daylight
31 Jul - 00:01:11 10° SW 00:04:58 11° SW 00:09:06 10° SSW daylight
31 Jul - 14:56:17 10° SSW 15:00:06 24° SSE 15:05:07 10° E daylight
31 Jul - 17:14:00 10° WSW 17:19:35 48° S 17:29:11 10° ESE daylight
31 Jul - 19:33:01 10° W 19:40:34 43° SSW 19:53:55 10° SE daylight
31 Jul - 21:54:07 10° WSW 22:02:54 24° SSW 22:15:47 10° SSE daylight
01 Aug - 15:16:31 10° SW 15:20:41 30° SSE 15:26:29 10° E daylight
01 Aug - 17:34:42 10° WSW 17:40:27 48° S 17:50:24 10° ESE daylight
01 Aug - 19:54:00 10° W 20:01:36 37° SSW 20:14:33 10° SE daylight
01 Aug - 22:16:24 10° WSW 22:24:03 18° SSW 22:34:19 10° S daylight
02 Aug - 15:36:57 10° SW 15:41:21 36° SSE 15:47:43 10° E daylight
02 Aug - 17:55:28 10° WSW 18:01:21 46° S 18:11:31 10° ESE daylight
02 Aug - 20:15:09 10° WSW 20:22:39 31° SSW 20:34:48 10° SSE daylight
02 Aug - 22:40:16 10° SW 22:45:12 12° SSW 22:51:01 10° SSW daylight
03 Aug - 13:40:19 10° S 13:42:56 15° SSE 13:45:47 10° ESE daylight
03 Aug - 15:57:31 10° WSW 16:02:04 40° S 16:08:54 10° ESE daylight
03 Aug - 18:16:17 10° WSW 18:22:16 41° S 18:32:28 10° SE daylight
03 Aug - 20:36:35 10° WSW 20:43:44 24° SSW 20:54:35 10° SSE daylight
04 Aug - 14:00:10 10° SSW 14:03:32 21° SSE 14:07:22 10° ESE daylight
04 Aug - 16:18:10 10° WSW 16:22:53 42° S 16:30:02 10° ESE daylight
04 Aug - 18:37:12 10° WSW 18:43:13 35° SSW 18:53:13 10° SE daylight
04 Aug - 20:58:29 10° WSW 21:04:50 18° SSW 21:13:39 10° S daylight
05 Aug - 14:20:25 10° SW 14:24:11 27° SSE 14:28:38 10° ESE daylight
05 Aug - 16:38:54 10° WSW 16:43:42 41° S 16:51:05 10° ESE daylight
05 Aug - 18:58:15 10° WSW 19:04:12 29° SSW 19:13:41 10° SE daylight
05 Aug - 21:21:35 10° SW 21:25:58 13° SSW 21:31:19 10° S daylight
06 Aug - 12:24:33 10° SSE 12:25:40 11° SSE 12:26:46 10° SE daylight
06 Aug - 14:40:55 10° SW 14:44:53 32° SSE 14:49:45 10° ESE daylight
06 Aug - 16:59:42 10° WSW 17:04:32 38° S 17:12:02 10° ESE daylight
06 Aug - 19:19:31 10° WSW 19:25:12 24° SSW 19:33:44 10° SSE daylight
07 Aug - 12:43:31 10° SSW 12:46:21 16° SSE 12:49:05 10° ESE daylight
07 Aug - 15:01:32 10° WSW 15:05:37 35° S 15:10:48 10° ESE daylight
07 Aug - 17:20:34 10° WSW 17:25:24 33° S 17:32:48 10° SE daylight
07 Aug - 19:41:13 10° WSW 19:46:14 18° SSW 19:53:09 10° SSE daylight
